STARLINK-1817 (46715 NORAD) Tracking and Keplerian Element Data

This shows tracking and keplerian element data for the satellite.

Feedback or suggestion? Click here.




ElementValue
Catalog46715
NameSTARLINK-1817
Epoch Orbit181
Epoch Day336.91667824
Epoch Year2020
RAAN251.001
Inclination53.0557
Eccentricity0.0001511
Argument of Perigee55.3116
Mean Anonmoly24.2127
Mean Motion15.62782606
Decay Rate-0.00074166
L11 46715U 20073AX 20336.91667824 -.00074166 00000-0 -81060-3 0 9996
L22 46715 53.0557 251.0010 0001511 55.3116 24.2127 15.62782606 1819

Live tracking and technical data element details for STARLINK-1817 (NORAD 46715). STARLINK-1817 can be tracked NOW for your location showing map with azimuth and elevation plus other details from your city location.

Track the satellite on the map from your city or location and see movement details for azimuth, elevation, latitude, longitude, range, height, and movement on the map or in text.







IsCatalogInMostPopularTable: catalog: 46715, numindb: 10
Update: records affected: 1



GetName: 46715 STARLINK-1817

Hit Count: updated at: Thu, 03 Dec 2020 06:34:47 GMT